カタログに戻る

METEOR 3-1 DEB

LostPO
NORAD 45520·DEBRIS·🇷🇺 Russia

打ち上げ Oct 24, 1985 から Plesetsk Cosmodrome

Loading…

次のパス (今後24時間)

TLE

古いSource: Space-Track

元期: Nov 9, 2023, 06:47 UTC

1 45520U 85100F   23313.28285882  .00001058  00000-0  25051-2 0  9994
2 45520  82.5383 326.6338 0015059 176.6091 183.5139 13.22472497327810

AllMySatでMETEOR 3-1 DEBをリアルタイム追跡

Download on the App Store